This demonstration page uses our WeatherBlox Daily Observations layout. Learn more.

Left ArrowRight Arrow

39.51506, -84.39828

Hourly Observations for June 6, 2017

Temp ( °F °C ) Dew Point ( °F °C ) Humidity (%) Winds ( mph kmh ) Pressure ( in mb ) Visibility ( mi km ) Precip ( " mm )
12:15 am 00:15 Mostly Cloudy 69 20.8 57 13.8 64 64 NE 10 17 29.85 1011 10 16 N/A
12:35 am 00:35 Clear 68 19.8 55 12.8 64 64 NNE 9 15 29.85 1011 10 16 N/A
12:55 am 00:55 Clear 67 19.5 53 11.7 61 61 NNE 6 9 29.85 1011 10 16 N/A
1:15 am 01:15 Clear 64 18 52 11.2 65 65 N 6 9 29.85 1011 10 16 N/A
1:35 am 01:35 Clear 62 16.7 51 10.7 68 68 N 3 6 29.85 1011 10 16 N/A
1:55 am 01:55 Clear 62 16.6 52 11.2 71 71 N 3 6 29.85 1011 10 16 N/A
2:15 am 02:15 Clear 61 16 52 11 72 72 N N/A 29.88 1012 10 16 N/A
2:35 am 02:35 Clear 61 16 52 11 72 72 N 5 7 29.88 1012 10 16 N/A
2:55 am 02:55 Clear 60 15.3 51 10.6 74 74 N 5 7 29.88 1012 10 16 N/A
3:15 am 03:15 Clear 60 15.3 52 11 76 76 N 3 6 29.88 1012 10 16 N/A
3:35 am 03:35 Clear 60 15.3 52 11.3 77 77 N 3 6 29.88 1012 10 16 N/A
3:55 am 03:55 Clear 57 13.8 50 10.2 79 79 N 3 6 29.91 1013 10 16 N/A
4:15 am 04:15 Clear 57 13.8 50 10.1 79 79 N 3 6 29.91 1013 10 16 N/A
4:35 am 04:35 Clear 57 14.1 51 10.4 79 79 N 3 6 29.91 1013 10 16 N/A
4:55 am 04:55 Clear 57 13.8 51 10.4 80 80 N N/A 29.91 1013 10 16 N/A
5:15 am 05:15 Clear 56 13.1 50 9.9 81 81 N 3 6 29.91 1013 10 16 N/A
5:35 am 05:35 Clear 56 13.4 51 10.3 82 82 N 3 6 29.91 1013 10 16 N/A
5:55 am 05:55 Clear 55 12.5 49 9.3 81 81 N 3 6 29.91 1013 10 16 N/A
6:15 am 06:15 Sunny 55 12.5 49 9.5 82 82 N N/A 29.91 1013 10 16 N/A
6:35 am 06:35 Sunny 55 12.5 49 9.5 82 82 N N/A 29.94 1014 10 16 N/A
6:55 am 06:55 Sunny 56 13.3 51 10.3 82 82 N N/A 29.94 1014 10 16 N/A
7:15 am 07:15 Sunny 57 13.8 51 10.7 82 82 N N/A 29.94 1014 10 16 N/A
7:35 am 07:35 Sunny 60 15.3 53 11.6 79 79 N N/A 29.91 1013 10 16 N/A
7:55 am 07:55 Sunny 60 15.4 52 10.9 75 75 NE 6 9 29.91 1013 10 16 N/A
8:15 am 08:15 Sunny 61 16 52 11 72 72 NNE 3 6 29.94 1014 10 16 N/A
8:35 am 08:35 Sunny 62 16.6 51 10.4 67 67 NE 6 9 29.94 1014 10 16 N/A
8:55 am 08:55 Sunny 64 18 51 10.5 62 62 NE 7 11 29.94 1014 10 16 N/A
9:15 am 09:15 Sunny 65 18.4 51 10.5 60 60 NNE 7 11 29.94 1014 10 16 N/A
9:35 am 09:35 Sunny 67 19.5 51 10.6 57 57 N 8 13 29.94 1014 10 16 N/A
9:55 am 09:55 Sunny 69 20.8 52 11.2 54 54 NNE 9 15 29.94 1014 10 16 N/A
10:15 am 10:15 Sunny 69 20.8 50 10.1 51 51 N 9 15 29.94 1014 10 16 N/A
10:35 am 10:35 Sunny 69 20.8 49 9.4 48 48 N 8 13 29.94 1014 10 16 N/A
10:55 am 10:55 Sunny 69 20.8 47 8.4 45 45 N 10 17 29.94 1014 10 16 N/A
11:15 am 11:15 Sunny 69 20.8 46 7.6 43 43 N 8 13 29.94 1014 10 16 N/A
11:35 am 11:35 Partly Cloudy 69 20.8 45 7.4 42 42 NNE 14 22 29.94 1014 10 16 N/A
11:55 am 11:55 Partly Cloudy 70 21.1 46 7.6 42 42 NNW 10 17 29.94 1014 10 16 N/A
12:15 pm 12:15 Sunny 71 21.8 44 6.4 37 37 NNW 9 15 29.91 1013 10 16 N/A
12:35 pm 12:35 Sunny 72 22.3 44 6.7 37 37 NNE 10 17 29.91 1013 10 16 N/A
12:55 pm 12:55 Sunny 74 23.6 45 7.4 35 35 N 14 22 29.91 1013 10 16 N/A
1:15 pm 13:15 Sunny 74 23.6 44 6.8 34 34 N 6 9 29.91 1013 10 16 N/A
1:35 pm 13:35 Sunny 74 23.6 44 6.8 34 34 N 7 11 29.91 1013 10 16 N/A
1:55 pm 13:55 Sunny 74 23.6 44 6.7 34 34 NNW 5 7 29.91 1013 10 16 N/A
2:15 pm 14:15 Sunny 74 23.6 44 6.4 33 33 NW 7 11 29.88 1012 10 16 N/A
2:35 pm 14:35 Partly Cloudy 74 23.6 43 6.1 32 32 NNE 7 11 29.88 1012 10 16 N/A
2:55 pm 14:55 Partly Cloudy 74 23.6 43 6 32 32 N 8 13 29.88 1012 10 16 N/A
3:15 pm 15:15 Partly Cloudy 75 23.7 41 4.8 29 29 N 13 20 29.88 1012 10 16 N/A
3:35 pm 15:35 Partly Cloudy 74 23.6 43 5.9 32 32 N 9 15 29.88 1012 10 16 N/A
3:55 pm 15:55 Partly Cloudy 74 23.6 42 5.5 31 31 N 7 11 29.88 1012 10 16 N/A
4:15 pm 16:15 Mostly Cloudy 77 25 45 7 32 32 NE 9 15 29.88 1012 10 16 N/A
4:35 pm 16:35 Partly Cloudy 74 23.6 42 5.4 31 31 N 7 11 29.88 1012 10 16 N/A
4:55 pm 16:55 Mostly Cloudy 75 24.1 43 6 31 31 NNE 9 15 29.88 1012 10 16 N/A
5:15 pm 17:15 Partly Cloudy 76 24.3 40 4.5 28 28 NNE 13 20 29.88 1012 10 16 N/A
5:35 pm 17:35 Partly Cloudy 77 25.1 40 4.7 27 27 N 6 9 29.88 1012 10 16 N/A
5:55 pm 17:55 Mostly Cloudy 76 24.3 43 6.2 31 31 N 7 11 29.88 1012 10 16 N/A
6:15 pm 18:15 Mostly Cloudy 74 23.6 40 4.2 28 28 NNE 9 15 29.88 1012 10 16 N/A
6:35 pm 18:35 Partly Cloudy 74 23.6 38 3.2 26 26 N 12 19 29.88 1012 10 16 N/A
6:55 pm 18:55 Partly Cloudy 75 24.1 38 3.1 25 25 NNE 12 19 29.88 1012 10 16 N/A
7:15 pm 19:15 Mostly Cloudy 74 23.6 40 4.3 29 29 N 10 17 29.88 1012 10 16 N/A
7:35 pm 19:35 Mostly Cloudy 74 23.6 40 4.4 29 29 N 12 19 29.88 1012 10 16 N/A
7:55 pm 19:55 Mostly Cloudy 74 23.6 43 6.3 33 33 N 7 11 29.91 1013 10 16 N/A
8:15 pm 20:15 Cloudy 74 23.6 43 6.2 33 33 NNE 14 22 29.91 1013 10 16 N/A
8:35 pm 20:35 Partly Cloudy 71 21.8 44 6.8 38 38 NNE 12 19 29.91 1013 10 16 N/A
8:55 pm 20:55 Partly Cloudy 69 20.8 44 6.9 41 41 NE 10 17 29.91 1013 10 16 N/A
9:15 pm 21:15 Mostly Cloudy 69 20.8 45 7.2 42 42 NNE 7 11 29.91 1013 10 16 N/A
9:35 pm 21:35 Cloudy 69 20.8 46 8 44 44 NE 6 9 29.91 1013 10 16 N/A
9:55 pm 21:55 Cloudy 69 20.8 47 8.2 44 44 NE 7 11 29.94 1014 10 16 N/A
10:15 pm 22:15 Cloudy 69 20.8 48 8.7 46 46 NE 6 9 29.94 1014 10 16 N/A
10:35 pm 22:35 Mostly Cloudy 69 20.8 48 9 47 47 NNE 5 7 29.94 1014 10 16 N/A
10:55 pm 22:55 Mostly Cloudy 66 19.1 48 8.7 51 51 NE 3 6 29.97 1015 10 16 N/A
11:15 pm 23:15 Partly Cloudy 63 17.1 47 8.5 57 57 N N/A 29.97 1015 10 16 N/A
11:35 pm 23:35 Clear 61 16 48 8.9 63 63 N 3 6 29.97 1015 10 16 N/A
11:55 pm 23:55 Clear 60 15.3 48 9 66 66 N N/A 29.97 1015 10 16 N/A

Powered by AerisWeather